Location: Grieser Field
(39.7333°N, 81.7975°W)
Time: 02:38:19
(UTC-05:00)

MOS 1-B - Visible Passes

Search period start: 28 February 2017 00:00
Search period end: 10 March 2017 00:00
Orbit: 905 x 914 km, 99.3° (Epoch: 27 February)

Date Brightness Start Highest point End Pass type
(mag) Time Alt. Az. Time Alt. Az. Time Alt. Az.
28 Feb 6.0 03:50:37 10° NNE 03:53:02 26° NNE 03:53:02 26° NNE visible
28 Feb 6.2 05:34:53 10° NNW 05:36:17 12° NW 05:36:17 12° NW visible
01 Mar 5.8 03:56:04 10° NNE 03:58:42 28° N 03:58:42 28° N visible
01 Mar 6.2 05:40:50 10° NW 05:41:58 11° NW 05:41:58 11° NW visible
02 Mar 5.7 04:01:31 10° N 04:04:22 30° N 04:04:22 30° N visible
02 Mar 6.3 05:47:07 10° NW 05:47:37 10° NW 05:47:37 10° NW visible
03 Mar 7.2 02:26:43 10° NE 02:26:46 10° NE 02:26:46 10° NE visible
03 Mar 5.6 04:06:59 10° N 04:10:02 32° N 04:10:02 32° N visible
04 Mar 7.1 02:31:52 10° NE 02:32:26 12° NE 02:32:26 12° NE visible
04 Mar 5.4 04:12:27 10° N 04:15:42 33° N 04:15:42 33° N visible
05 Mar 7.0 02:37:03 10° NE 02:38:06 14° NE 02:38:06 14° NE visible
05 Mar 5.4 04:17:57 10° N 04:21:22 34° NNW 04:21:22 34° NNW visible
06 Mar 6.8 02:42:18 10° NE 02:43:46 16° NE 02:43:46 16° NE visible
06 Mar 5.3 04:23:26 10° N 04:27:02 35° NNW 04:27:02 35° NNW visible
07 Mar 6.7 02:47:34 10° NE 02:49:26 18° NE 02:49:26 18° NE visible
07 Mar 5.2 04:28:56 10° N 04:32:42 34° NNW 04:32:42 34° NNW visible
08 Mar 6.5 02:52:51 10° NE 02:55:07 21° NE 02:55:07 21° NE visible
08 Mar 5.2 04:34:26 10° N 04:38:23 34° NW 04:38:23 34° NW visible
09 Mar 6.4 02:58:10 10° NNE 03:00:47 23° NE 03:00:47 23° NE visible
09 Mar 5.2 04:39:58 10° N 04:44:02 32° NW 04:44:02 32° NW visible
